M I D A S
Marine Information and Data Acquisition System
Tripno 2299 of the Zeeleeuw from 2012-01-11 06:06:48 to 2012-01-11 17:57:11
Back to CruiseResearch ActivitiesStationsMapUnderway DataData graphs

EquipmentUnitsComments
TimeDGPSUTC
LatitudeDGPSDM.mWGS84
LongitudeDGPSDM.mWGS84
SpeedMeteo Stationm/sRelative wind speed
DirectionMeteo StationdegRelative wind direction
TemperatureMeteo Stationdeg CelciusAir temperature
PressureMeteo StationPaAtmospheric pressure
HumidityMeteo Station%Relative humidity
Missing or incorrect values are displayed as -999
Metereological data collected by the RV Zeeleeuw from 2012-01-11 06:01:34 to 2012-01-11 18:05:45
                                                                                    Next 1000 lines
Time Latitude Longitude Speed Direction Temperature Pressure Humidity
2012-01-11 06:01:44 51°13.637 2°56.011 4.6 43 9 103240 54
2012-01-11 06:01:48 51°13.637 2°56.008 3.9 31 9 103240 54
2012-01-11 06:01:53 51°13.639 2°56.002 3.4 19 9 103240 50
2012-01-11 06:01:59 51°13.64 2°55.995 5.7 33 9 103240 50
2012-01-11 06:02:04 51°13.642 2°55.987 5.2 25 9 103250 50
2012-01-11 06:02:10 51°13.644 2°55.977 5.2 32 9 103250 50
2012-01-11 06:02:16 51°13.647 2°55.967 3.8 21 9 103240 53
2012-01-11 06:02:21 51°13.648 2°55.959 4.9 39 9 103240 53
2012-01-11 06:02:26 51°13.65 2°55.95 5.1 26 9 103240 53
2012-01-11 06:02:31 51°13.652 2°55.94 5.7 34 9 103240 53
2012-01-11 06:02:36 51°13.653 2°55.931 4.4 20 9 103240 53
2012-01-11 06:02:41 51°13.654 2°55.921 5.1 43 9 103240 53
2012-01-11 06:02:46 51°13.656 2°55.911 4.6 19 9 103240 53
2012-01-11 06:02:51 51°13.658 2°55.902 4.9 39 9 103240 53
2012-01-11 06:02:56 51°13.66 2°55.893 4.6 22 9 103240 50
2012-01-11 06:03:01 51°13.663 2°55.883 4.6 37 9 103240 50
2012-01-11 06:03:06 51°13.665 2°55.874 5.1 43 9 103240 51
2012-01-11 06:03:11 51°13.668 2°55.865 4.6 43 9 103240 51
2012-01-11 06:03:16 51°13.671 2°55.855 4.6 20 9 103240 49
2012-01-11 06:03:21 51°13.674 2°55.846 4.9 43 9 103240 49
2012-01-11 06:03:26 51°13.678 2°55.836 4.7 43 8.9 103240 52
2012-01-11 06:03:31 51°13.682 2°55.827 4.2 38 8.9 103240 52
2012-01-11 06:03:36 51°13.686 2°55.817 3.8 25 9 103240 50
2012-01-11 06:03:41 51°13.691 2°55.808 3.8 33 9 103240 50
2012-01-11 06:03:46 51°13.695 2°55.798 3.9 44 9 103240 50
2012-01-11 06:03:51 51°13.7 2°55.789 3.2 43 9 103240 50
2012-01-11 06:03:56 51°13.705 2°55.78 3.9 45 9 103240 53
2012-01-11 06:04:01 51°13.71 2°55.771 4.3 33 9 103240 53
2012-01-11 06:04:06 51°13.716 2°55.762 4.5 26 9 103240 51
2012-01-11 06:04:12 51°13.723 2°55.751 5 44 9 103240 51
2012-01-11 06:04:16 51°13.728 2°55.744 4.9 40 9 103240 51
2012-01-11 06:04:21 51°13.733 2°55.736 5.5 41 9 103240 51
2012-01-11 06:04:26 51°13.74 2°55.727 4.8 43 8.9 103240 53
2012-01-11 06:04:31 51°13.746 2°55.719 4.8 44 8.9 103240 53
2012-01-11 06:04:36 51°13.752 2°55.71 3.4 45 9 103240 51
2012-01-11 06:04:41 51°13.758 2°55.702 3.7 41 9 103240 51
2012-01-11 06:04:46 51°13.764 2°55.694 3.8 45 9 103240 50
2012-01-11 06:04:51 51°13.77 2°55.686 4.4 31 9 103240 50
2012-01-11 06:04:56 51°13.776 2°55.679 4.9 44 9 103240 51
2012-01-11 06:05:01 51°13.783 2°55.671 4 41 9 103240 51
2012-01-11 06:05:06 51°13.789 2°55.664 3.9 43 9 103240 53
2012-01-11 06:05:11 51°13.796 2°55.658 2.2 29 9 103240 53
2012-01-11 06:05:16 51°13.803 2°55.652 2.6 45 9 103240 50
2012-01-11 06:05:22 51°13.811 2°55.645 3.2 39 9 103240 50
2012-01-11 06:05:26 51°13.817 2°55.641 4.1 45 9 103240 50
2012-01-11 06:05:31 51°13.825 2°55.637 2.9 32 9 103240 50
2012-01-11 06:05:36 51°13.833 2°55.633 3.9 27 8.9 103240 51
2012-01-11 06:05:41 51°13.84 2°55.63 4.6 41 8.9 103240 51
2012-01-11 06:05:47 51°13.85 2°55.627 4.7 34 9 103240 53
2012-01-11 06:05:51 51°13.856 2°55.625 1.8 28 9 103240 53
2012-01-11 06:05:56 51°13.864 2°55.623 2.7 31 9 103240 52
2012-01-11 06:06:01 51°13.872 2°55.622 0.4 39 9 103240 52
2012-01-11 06:06:07 51°13.881 2°55.622 0.3 25 9 103240 54
2012-01-11 06:06:12 51°13.889 2°55.622 3.7 41 9 103240 54
2012-01-11 06:06:16 51°13.894 2°55.622 3.6 43 9 103240 54
2012-01-11 06:06:21 51°13.901 2°55.622 2.2 27 9 103240 54
2012-01-11 06:06:26 51°13.908 2°55.623 2.2 30 9 103240 54
2012-01-11 06:06:31 51°13.914 2°55.625 2.9 29 9 103240 54
2012-01-11 06:06:36 51°13.92 2°55.626 2.9 42 9 103240 53
2012-01-11 06:06:41 51°13.926 2°55.628 2.4 25 9 103240 53
2012-01-11 06:06:46 51°13.932 2°55.63 2.5 21 9 103240 51
2012-01-11 06:06:51 51°13.937 2°55.633 2.3 20 9 103240 51
2012-01-11 06:06:56 51°13.942 2°55.635 1.9 18 9 103240 50
2012-01-11 06:07:01 51°13.946 2°55.637 1.5 14 9 103240 50
2012-01-11 06:07:06 51°13.951 2°55.64 1.6 10 9 103230 50
2012-01-11 06:07:11 51°13.955 2°55.642 0.9 3 9 103230 50
2012-01-11 06:07:16 51°13.959 2°55.645 0.9 2 9 103240 50
2012-01-11 06:07:21 51°13.962 2°55.647 0.7 359 9 103240 50
2012-01-11 06:07:26 51°13.965 2°55.65 1 353 9 103240 53
2012-01-11 06:07:31 51°13.968 2°55.652 0.8 357 9 103240 53
2012-01-11 06:07:36 51°13.971 2°55.654 0.9 357 9 103240 50
2012-01-11 06:07:41 51°13.973 2°55.656 3 10 9 103240 50
2012-01-11 06:07:46 51°13.975 2°55.658 2.5 353 9 103240 51
2012-01-11 06:07:51 51°13.976 2°55.659 0.4 325 9 103240 51
2012-01-11 06:07:56 51°13.977 2°55.66 0.3 321 9 103240 51
2012-01-11 06:08:01 51°13.978 2°55.66 1.9 316 9 103240 51
2012-01-11 06:08:06 51°13.978 2°55.659 2.4 318 9 103240 54
2012-01-11 06:08:11 51°13.978 2°55.657 2.6 318 9 103240 54
2012-01-11 06:08:16 51°13.977 2°55.653 3.8 319 9 103240 51
2012-01-11 06:08:21 51°13.977 2°55.65 3.7 32 9 103240 51
2012-01-11 06:08:27 51°13.977 2°55.644 3.5 318 9 103240 50
2012-01-11 06:08:32 51°13.978 2°55.639 3.4 317 9 103240 50
2012-01-11 06:08:36 51°13.979 2°55.634 3 317 9 103240 49
2012-01-11 06:08:41 51°13.98 2°55.628 2.6 33 9 103240 49
2012-01-11 06:08:46 51°13.982 2°55.621 2.8 22 9 103240 50
2012-01-11 06:08:51 51°13.984 2°55.614 3.9 32 9 103240 50
2012-01-11 06:08:56 51°13.987 2°55.606 3.8 318 9 103240 52
2012-01-11 06:09:01 51°13.99 2°55.598 3.1 316 9 103240 52
2012-01-11 06:09:06 51°13.994 2°55.59 4 319 9 103230 50
2012-01-11 06:09:11 51°13.998 2°55.581 5.7 32 9 103230 50
2012-01-11 06:09:16 51°14.002 2°55.573 4.9 27 9 103230 51
2012-01-11 06:09:21 51°14.007 2°55.564 5.2 315 9 103230 51
2012-01-11 06:09:26 51°14.012 2°55.555 5.2 19 9 103230 52
2012-01-11 06:09:31 51°14.017 2°55.546 4.9 322 9 103230 52
2012-01-11 06:09:36 51°14.022 2°55.537 4.9 319 9 103240 53
2012-01-11 06:09:41 51°14.028 2°55.528 4.8 39 9 103240 53
2012-01-11 06:09:46 51°14.034 2°55.518 4.3 24 9 103230 50
2012-01-11 06:09:51 51°14.04 2°55.509 5.1 33 9 103230 50
2012-01-11 06:09:56 51°14.046 2°55.501 4.2 21 9 103240 50
2012-01-11 06:10:01 51°14.052 2°55.492 3.4 34 9 103240 50
2012-01-11 06:10:06 51°14.059 2°55.484 3.2 26 9 103230 50
2012-01-11 06:10:11 51°14.066 2°55.476 4.5 233 9 103230 50
2012-01-11 06:10:16 51°14.074 2°55.468 3.6 24 9 103230 50
2012-01-11 06:10:21 51°14.081 2°55.46 3.3 235 9 103230 50
2012-01-11 06:10:26 51°14.089 2°55.452 2.9 318 9 103240 53
2012-01-11 06:10:31 51°14.097 2°55.444 3.9 33 9 103240 53
2012-01-11 06:10:36 51°14.106 2°55.436 3 319 9 103250 53
2012-01-11 06:10:41 51°14.115 2°55.428 5.6 331 9 103250 53
2012-01-11 06:10:46 51°14.123 2°55.42 4.6 321 9 103240 52
2012-01-11 06:10:51 51°14.132 2°55.411 3.8 322 9 103240 52
2012-01-11 06:10:56 51°14.141 2°55.402 5.2 316 9 103230 53
2012-01-11 06:11:01 51°14.151 2°55.394 6.4 32 9 103230 53
2012-01-11 06:11:06 51°14.16 2°55.385 5.8 22 9 103240 50
2012-01-11 06:11:11 51°14.169 2°55.377 7.3 234 9 103240 50
2012-01-11 06:11:16 51°14.18 2°55.368 7.3 22 9 103240 51
2012-01-11 06:11:21 51°14.19 2°55.361 6.9 238 9 103240 51
2012-01-11 06:11:26 51°14.2 2°55.352 6.9 21 9 103230 50
2012-01-11 06:11:31 51°14.211 2°55.344 4.8 39 9 103230 50
2012-01-11 06:11:36 51°14.222 2°55.337 5 20 9 103230 51
2012-01-11 06:11:41 51°14.233 2°55.329 6.4 234 9 103230 51
2012-01-11 06:11:46 51°14.244 2°55.322 5.8 27 9 103230 51
2012-01-11 06:11:51 51°14.256 2°55.315 5.2 239 9 103230 51
2012-01-11 06:11:56 51°14.268 2°55.308 6.1 20 9 103240 50
2012-01-11 06:12:01 51°14.279 2°55.3 6.8 33 9 103240 50
2012-01-11 06:12:06 51°14.29 2°55.29 6.7 19 9 103240 52
2012-01-11 06:12:11 51°14.301 2°55.281 6.1 39 9 103240 52
2012-01-11 06:12:16 51°14.312 2°55.27 5.9 21 9 103240 50
2012-01-11 06:12:21 51°14.322 2°55.258 6.5 32 9 103240 50
2012-01-11 06:12:27 51°14.336 2°55.244 5.5 315 8.9 103230 50
2012-01-11 06:12:31 51°14.344 2°55.234 7.4 316 8.9 103230 50
2012-01-11 06:12:36 51°14.355 2°55.221 7.1 316 8.9 103230 50
2012-01-11 06:12:41 51°14.366 2°55.209 6.8 38 8.9 103230 50
2012-01-11 06:12:47 51°14.379 2°55.193 7.9 25 8.9 103230 52
2012-01-11 06:12:51 51°14.387 2°55.182 7.4 36 8.9 103230 52
2012-01-11 06:12:56 51°14.398 2°55.168 8.1 24 8.9 103230 51
2012-01-11 06:13:01 51°14.408 2°55.153 9.1 30 8.9 103230 51
2012-01-11 06:13:06 51°14.419 2°55.138 7.7 18 8.9 103230 51
2012-01-11 06:13:12 51°14.432 2°55.121 10.5 33 8.9 103230 51
2012-01-11 06:13:16 51°14.441 2°55.109 8 22 8.9 103230 51
2012-01-11 06:13:21 51°14.452 2°55.095 8.5 32 8.9 103230 51
2012-01-11 06:13:26 51°14.464 2°55.08 7.6 19 8.9 103220 53
2012-01-11 06:13:31 51°14.475 2°55.065 8.1 36 8.9 103220 53
2012-01-11 06:13:36 51°14.487 2°55.05 9.9 25 8.9 103230 51
2012-01-11 06:13:41 51°14.499 2°55.035 11.2 32 8.9 103230 51
2012-01-11 06:13:46 51°14.511 2°55.02 8.6 19 8.9 103220 52
2012-01-11 06:13:51 51°14.523 2°55.006 8.1 233 8.9 103220 52
2012-01-11 06:13:56 51°14.536 2°54.991 9.1 26 8.9 103230 49
2012-01-11 06:14:00 51°14.545 2°54.978 7.9 31 8.9 103230 49
2012-01-11 06:14:05 51°14.557 2°54.962 8.7 25 8.9 103230 52
2012-01-11 06:14:10 51°14.57 2°54.946 8.6 33 8.9 103230 52
2012-01-11 06:14:15 51°14.582 2°54.93 8.9 25 8.9 103230 51
2012-01-11 06:14:20 51°14.595 2°54.915 10.7 31 8.9 103230 51
2012-01-11 06:14:24 51°14.606 2°54.903 10.1 19 8.9 103220 51
2012-01-11 06:14:29 51°14.619 2°54.888 7.7 31 8.9 103220 51
2012-01-11 06:14:34 51°14.633 2°54.875 8.4 20 8.9 103210 53
2012-01-11 06:14:40 51°14.65 2°54.858 7.8 234 8.9 103210 53
2012-01-11 06:14:44 51°14.661 2°54.848 8.6 24 8.9 103230 51
2012-01-11 06:14:49 51°14.674 2°54.834 7.7 237 8.9 103230 51
2012-01-11 06:14:54 51°14.689 2°54.822 9.4 24 8.9 103210 53
2012-01-11 06:14:59 51°14.703 2°54.809 9.7 237 8.9 103210 53
2012-01-11 06:15:04 51°14.718 2°54.796 10.5 21 8.9 103220 52
2012-01-11 06:15:08 51°14.729 2°54.785 8.7 236 8.9 103220 52
2012-01-11 06:15:13 51°14.743 2°54.772 10.3 23 8.9 103210 51
2012-01-11 06:15:18 51°14.758 2°54.759 9.3 235 8.9 103210 51
2012-01-11 06:15:23 51°14.772 2°54.746 9.8 25 8.9 103210 53
2012-01-11 06:15:28 51°14.787 2°54.734 9.8 235 8.9 103210 53
2012-01-11 06:15:33 51°14.802 2°54.72 8.2 21 8.9 103210 52
2012-01-11 06:15:38 51°14.817 2°54.708 8.2 33 8.9 103210 52
2012-01-11 06:15:43 51°14.832 2°54.694 7.9 25 8.9 103220 52
2012-01-11 06:15:48 51°14.846 2°54.682 9.1 235 8.9 103220 52
2012-01-11 06:15:52 51°14.858 2°54.67 11.1 22 8.9 103210 52
2012-01-11 06:15:58 51°14.875 2°54.653 9 233 8.9 103210 52
2012-01-11 06:16:03 51°14.889 2°54.637 8.2 25 8.9 103210 52
2012-01-11 06:16:08 51°14.903 2°54.622 8.4 234 8.9 103210 52
2012-01-11 06:16:12 51°14.914 2°54.609 8.5 26 8.9 103210 52
2012-01-11 06:16:18 51°14.931 2°54.593 9.3 33 8.9 103210 52
2012-01-11 06:16:23 51°14.946 2°54.58 9 19 8.9 103220 51
2012-01-11 06:16:28 51°14.961 2°54.567 10.7 237 8.9 103220 51
2012-01-11 06:16:32 51°14.973 2°54.558 11.8 26 8.9 103210 51
2012-01-11 06:16:38 51°14.991 2°54.544 9.8 238 8.9 103210 51
2012-01-11 06:16:43 51°15.006 2°54.533 8.2 27 8.9 103210 50
2012-01-11 06:16:48 51°15.021 2°54.522 9.9 239 8.9 103210 50
2012-01-11 06:16:52 51°15.034 2°54.515 10.8 21 8.9 103220 52
2012-01-11 06:16:58 51°15.052 2°54.503 9.7 29 8.9 103220 52
2012-01-11 06:17:03 51°15.067 2°54.492 7.9 23 8.9 103210 51
2012-01-11 06:17:08 51°15.082 2°54.482 8.4 237 8.9 103210 51
2012-01-11 06:17:12 51°15.094 2°54.473 9.3 22 8.9 103220 51
2012-01-11 06:17:18 51°15.113 2°54.461 8 31 8.9 103220 51
2012-01-11 06:17:23 51°15.128 2°54.45 9.3 21 8.9 103220 52
2012-01-11 06:17:28 51°15.143 2°54.44 8.2 238 8.9 103220 52
2012-01-11 06:17:32 51°15.156 2°54.431 7.7 26 8.9 103220 51
2012-01-11 06:17:38 51°15.174 2°54.416 8.6 323 8.9 103220 51
2012-01-11 06:17:43 51°15.189 2°54.404 9.2 319 8.9 103220 52
2012-01-11 06:17:48 51°15.203 2°54.392 8.6 31 8.9 103220 52
2012-01-11 06:17:52 51°15.215 2°54.383 7.6 23 8.9 103220 52
2012-01-11 06:17:58 51°15.233 2°54.369 8.3 34 8.9 103220 52
2012-01-11 06:18:03 51°15.248 2°54.356 8.1 20 8.9 103230 51
2012-01-11 06:18:08 51°15.263 2°54.344 9.8 31 8.9 103230 51
2012-01-11 06:18:12 51°15.275 2°54.333 8.3 23 8.9 103220 52
2012-01-11 06:18:18 51°15.292 2°54.319 8.3 236 8.9 103220 52
2012-01-11 06:18:23 51°15.307 2°54.306 8.5 23 8.9 103210 51
2012-01-11 06:18:28 51°15.322 2°54.294 9.9 34 8.9 103210 51
2012-01-11 06:18:33 51°15.336 2°54.281 8.2 20 8.9 103210 52
2012-01-11 06:18:38 51°15.351 2°54.269 8.8 237 8.9 103210 52
2012-01-11 06:18:43 51°15.366 2°54.256 11.2 19 8.9 103210 52
2012-01-11 06:18:48 51°15.381 2°54.244 9.1 32 8.9 103210 52
2012-01-11 06:18:52 51°15.393 2°54.233 9.1 23 8.9 103210 50
2012-01-11 06:18:58 51°15.41 2°54.217 8.7 236 8.9 103210 50
2012-01-11 06:19:03 51°15.425 2°54.203 8.4 20 8.9 103210 53
2012-01-11 06:19:08 51°15.439 2°54.189 10.9 235 8.9 103210 53
2012-01-11 06:19:12 51°15.451 2°54.177 8.8 28 8.9 103210 50
2012-01-11 06:19:18 51°15.468 2°54.16 8.4 235 8.9 103210 50
2012-01-11 06:19:23 51°15.483 2°54.145 9.1 24 9 103210 53
2012-01-11 06:19:28 51°15.498 2°54.13 10.4 36 9 103210 53
2012-01-11 06:19:33 51°15.512 2°54.115 10.9 21 8.9 103210 53
2012-01-11 06:19:38 51°15.527 2°54.1 8.4 234 8.9 103210 53
2012-01-11 06:19:43 51°15.541 2°54.085 10.2 25 9 103210 52
2012-01-11 06:19:48 51°15.555 2°54.07 8.4 37 9 103210 52
2012-01-11 06:19:52 51°15.567 2°54.059 10.9 23 9 103210 52
2012-01-11 06:19:58 51°15.584 2°54.041 8.4 237 9 103210 52
2012-01-11 06:20:03 51°15.598 2°54.027 9.8 21 9 103210 53
2012-01-11 06:20:08 51°15.613 2°54.014 10.4 236 9 103210 53
2012-01-11 06:20:12 51°15.625 2°54.003 8.5 25 9 103210 52
2012-01-11 06:20:18 51°15.644 2°53.987 10.2 35 9 103210 52
2012-01-11 06:20:23 51°15.659 2°53.974 7.9 21 9 103210 52
2012-01-11 06:20:28 51°15.674 2°53.961 10.2 34 9 103210 52
2012-01-11 06:20:32 51°15.686 2°53.951 9.3 25 9 103210 51
2012-01-11 06:20:38 51°15.705 2°53.935 8.5 33 9 103210 51
2012-01-11 06:20:43 51°15.718 2°53.921 10.8 24 9 103210 52
2012-01-11 06:20:48 51°15.733 2°53.907 10.1 32 9 103210 52
2012-01-11 06:20:52 51°15.744 2°53.895 10.6 20 9 103210 51
2012-01-11 06:20:58 51°15.762 2°53.879 10 236 9 103210 51
2012-01-11 06:21:03 51°15.777 2°53.865 10.6 25 9 103210 53
2012-01-11 06:21:08 51°15.792 2°53.851 9.3 236 9 103210 53
2012-01-11 06:21:13 51°15.807 2°53.837 8.8 24 9 103210 52
2012-01-11 06:21:18 51°15.822 2°53.823 9.9 234 9 103210 52
2012-01-11 06:21:23 51°15.836 2°53.808 10 23 9 103210 51
2012-01-11 06:21:28 51°15.851 2°53.794 10.2 36 9 103210 51
2012-01-11 06:21:32 51°15.862 2°53.782 9 25 9 103210 53
2012-01-11 06:21:38 51°15.879 2°53.765 11.3 35 9 103210 53
2012-01-11 06:21:43 51°15.894 2°53.75 11.9 20 9 103210 52
2012-01-11 06:21:48 51°15.909 2°53.736 8.9 32 9 103210 52
2012-01-11 06:21:52 51°15.92 2°53.724 10.7 19 9 103210 52
2012-01-11 06:21:58 51°15.938 2°53.707 10.7 31 9 103210 52
2012-01-11 06:22:03 51°15.953 2°53.692 9.1 24 9 103210 51
2012-01-11 06:22:08 51°15.967 2°53.677 9.5 235 9 103210 51
2012-01-11 06:22:12 51°15.978 2°53.665 8.7 20 9 103200 52
2012-01-11 06:22:18 51°15.996 2°53.647 10.7 30 9 103200 52
2012-01-11 06:22:23 51°16.009 2°53.631 11.4 22 9 103210 52
2012-01-11 06:22:28 51°16.023 2°53.616 8.7 234 9 103210 52
2012-01-11 06:22:33 51°16.037 2°53.6 8.9 24 9 103210 52
2012-01-11 06:22:38 51°16.052 2°53.585 8.5 34 9 103210 52
2012-01-11 06:22:43 51°16.066 2°53.569 8.6 21 9 103210 52
2012-01-11 06:22:48 51°16.08 2°53.554 10.4 32 9 103210 52
2012-01-11 06:22:52 51°16.091 2°53.541 10 21 9 103200 53
2012-01-11 06:22:58 51°16.109 2°53.523 10 34 9 103200 53
2012-01-11 06:23:03 51°16.123 2°53.509 9.8 21 9 103200 52
2012-01-11 06:23:08 51°16.138 2°53.495 9.4 234 9 103200 52
2012-01-11 06:23:12 51°16.15 2°53.484 8.1 22 9 103200 52
2012-01-11 06:23:18 51°16.168 2°53.469 8.8 236 9 103200 52
2012-01-11 06:23:23 51°16.184 2°53.456 11 26 9 103210 51
2012-01-11 06:23:28 51°16.199 2°53.444 11.1 236 9 103210 51
2012-01-11 06:23:32 51°16.211 2°53.434 11 21 9 103200 51
2012-01-11 06:23:38 51°16.23 2°53.419 10.9 235 9 103200 51
2012-01-11 06:23:43 51°16.245 2°53.407 9 26 9 103210 53
2012-01-11 06:23:48 51°16.26 2°53.394 10 34 9 103210 53
2012-01-11 06:23:52 51°16.272 2°53.384 8.2 21 9 103200 52
2012-01-11 06:23:57 51°16.287 2°53.372 8.3 31 9 103200 52
2012-01-11 06:24:03 51°16.305 2°53.356 10.7 24 9 103210 51
2012-01-11 06:24:08 51°16.32 2°53.343 9 32 9 103210 51
2012-01-11 06:24:12 51°16.332 2°53.332 8.1 20 9 103210 51
2012-01-11 06:24:17 51°16.347 2°53.318 10.1 35 9 103210 51
2012-01-11 06:24:22 51°16.362 2°53.305 10 20 9 103200 51
2012-01-11 06:24:28 51°16.38 2°53.289 10.8 32 9 103200 51
2012-01-11 06:24:32 51°16.392 2°53.279 10.2 26 9 103200 51
2012-01-11 06:24:37 51°16.407 2°53.265 8.5 235 9 103200 51
2012-01-11 06:24:42 51°16.422 2°53.252 9.2 26 9 103230 51
2012-01-11 06:24:48 51°16.44 2°53.237 8.1 234 9 103230 51
2012-01-11 06:24:52 51°16.452 2°53.227 11.4 25 9 103230 50
2012-01-11 06:24:57 51°16.467 2°53.213 9.1 30 9 103230 50
2012-01-11 06:25:02 51°16.482 2°53.2 11.2 19 9 103230 52
2012-01-11 06:25:08 51°16.499 2°53.184 10.8 235 9 103230 52
2012-01-11 06:25:12 51°16.511 2°53.172 11.5 28 9 103230 50
2012-01-11 06:25:16 51°16.523 2°53.161 8.2 37 9 103230 50
2012-01-11 06:25:22 51°16.54 2°53.144 10.7 23 9 103240 53
2012-01-11 06:25:28 51°16.558 2°53.126 10.8 32 9 103240 53
2012-01-11 06:25:32 51°16.569 2°53.114 8.9 19 9 103240 52
2012-01-11 06:25:37 51°16.584 2°53.099 10.8 37 9 103240 52
2012-01-11 06:25:42 51°16.598 2°53.084 10.8 21 9 103230 52
2012-01-11 06:25:48 51°16.615 2°53.065 8.7 234 9 103230 52
2012-01-11 06:25:52 51°16.627 2°53.053 10.9 22 9 103230 51
2012-01-11 06:25:57 51°16.641 2°53.038 8.7 235 9 103230 51
2012-01-11 06:26:02 51°16.656 2°53.024 8.6 23 9 103240 52
2012-01-11 06:26:08 51°16.673 2°53.006 8.6 33 9 103240 52
2012-01-11 06:26:12 51°16.685 2°52.995 11.1 24 9 103230 53
2012-01-11 06:26:16 51°16.697 2°52.984 9.9 235 9 103230 53
2012-01-11 06:26:22 51°16.714 2°52.967 10 25 9 103230 52
2012-01-11 06:26:28 51°16.732 2°52.951 9.8 236 9 103230 52
2012-01-11 06:26:32 51°16.744 2°52.94 7.8 27 9 103230 51
2012-01-11 06:26:37 51°16.759 2°52.926 8 30 9 103230 51
2012-01-11 06:26:42 51°16.774 2°52.913 9.4 23 9 103240 51
2012-01-11 06:26:48 51°16.792 2°52.898 9.8 34 9 103240 51
2012-01-11 06:26:52 51°16.803 2°52.887 8.2 23 9 103240 51
2012-01-11 06:26:57 51°16.818 2°52.874 8.8 235 9 103240 51
2012-01-11 06:27:03 51°16.836 2°52.859 10.7 26 9 103230 50
2012-01-11 06:27:08 51°16.851 2°52.846 9.9 36 9 103230 50
2012-01-11 06:27:12 51°16.863 2°52.835 10.4 22 9 103200 51
2012-01-11 06:27:16 51°16.875 2°52.825 10.9 238 9 103200 51
2012-01-11 06:27:22 51°16.892 2°52.809 8.1 22 9 103210 50
2012-01-11 06:27:28 51°16.91 2°52.793 11 32 9 103210 50
2012-01-11 06:27:32 51°16.921 2°52.782 9.9 21 9 103210 51
2012-01-11 06:27:38 51°16.939 2°52.766 10 236 9 103210 51
2012-01-11 06:27:42 51°16.951 2°52.755 9.4 26 9 103230 50
2012-01-11 06:27:48 51°16.968 2°52.738 9.1 32 9 103230 50
2012-01-11 06:27:52 51°16.98 2°52.727 10.1 26 9 103240 51
2012-01-11 06:27:58 51°16.998 2°52.71 10.4 33 9 103240 51
2012-01-11 06:28:03 51°17.013 2°52.697 10.2 24 9 103240 52
2012-01-11 06:28:08 51°17.028 2°52.683 10.6 237 9 103240 52
2012-01-11 06:28:12 51°17.039 2°52.672 8.9 27 9 103230 50
2012-01-11 06:28:18 51°17.057 2°52.656 8.3 34 9 103230 50
2012-01-11 06:28:23 51°17.072 2°52.642 10 23 9 103230 50
2012-01-11 06:28:28 51°17.087 2°52.629 8.3 35 9 103230 50
2012-01-11 06:28:32 51°17.099 2°52.618 9.6 18 9 103240 52
2012-01-11 06:28:37 51°17.113 2°52.604 9.8 32 9 103240 52
2012-01-11 06:28:43 51°17.131 2°52.59 10.1 23 9 103220 51
2012-01-11 06:28:48 51°17.147 2°52.578 9 238 9 103220 51
2012-01-11 06:28:52 51°17.159 2°52.569 9.5 26 9 103240 52
2012-01-11 06:28:57 51°17.174 2°52.557 9.8 237 9 103240 52
2012-01-11 06:29:02 51°17.19 2°52.546 7.8 25 9 103230 53
2012-01-11 06:29:08 51°17.208 2°52.533 9.7 238 9 103230 53
2012-01-11 06:29:12 51°17.221 2°52.525 8.6 25 9 103240 53
2012-01-11 06:29:17 51°17.237 2°52.515 7.5 238 9 103240 53
2012-01-11 06:29:23 51°17.256 2°52.504 7.9 26 9 103230 52
2012-01-11 06:29:28 51°17.272 2°52.495 7.7 33 9 103230 52
2012-01-11 06:29:32 51°17.285 2°52.488 10.1 21 9 103230 52
2012-01-11 06:29:36 51°17.298 2°52.482 8.8 239 9 103230 52
2012-01-11 06:29:42 51°17.317 2°52.473 9.8 23 9 103240 53
2012-01-11 06:29:48 51°17.337 2°52.465 8.9 241 9 103240 53
2012-01-11 06:29:52 51°17.351 2°52.461 9.5 21 9 103240 49
2012-01-11 06:29:58 51°17.37 2°52.454 7.8 242 9 103240 49
2012-01-11 06:30:02 51°17.383 2°52.449 7.1 19 9 103240 52
2012-01-11 06:30:08 51°17.403 2°52.445 8 245 9 103240 52
2012-01-11 06:30:12 51°17.417 2°52.441 8.6 19 9 103230 51
2012-01-11 06:30:18 51°17.437 2°52.438 6.9 242 9 103230 51
2012-01-11 06:30:23 51°17.454 2°52.436 7.9 25 9 103230 52
2012-01-11 06:30:28 51°17.471 2°52.434 6.9 243 9 103230 52
2012-01-11 06:30:32 51°17.484 2°52.432 8 21 9 103230 50
2012-01-11 06:30:37 51°17.501 2°52.431 8.1 244 9 103230 50
2012-01-11 06:30:43 51°17.521 2°52.429 6.4 246 9 103240 50
2012-01-11 06:30:48 51°17.537 2°52.428 7.3 243 9 103240 50
2012-01-11 06:30:52 51°17.551 2°52.428 6.8 245 9 103240 52
2012-01-11 06:30:57 51°17.567 2°52.428 7.5 246 9 103240 52
2012-01-11 06:31:02 51°17.584 2°52.429 6.7 246 9 103240 50
2012-01-11 06:31:08 51°17.604 2°52.43 6.4 246 9 103240 50
2012-01-11 06:31:12 51°17.618 2°52.431 7.5 21 9 103240 53
2012-01-11 06:31:17 51°17.634 2°52.433 6.1 247 9 103240 53
2012-01-11 06:31:22 51°17.651 2°52.434 7.5 20 9 103240 51
2012-01-11 06:31:28 51°17.671 2°52.436 6.9 245 9 103240 51
2012-01-11 06:31:32 51°17.684 2°52.436 6.6 19 9 103240 50
2012-01-11 06:31:37 51°17.701 2°52.438 6.4 242 9 103240 50
2012-01-11 06:31:43 51°17.721 2°52.439 6.7 248 9 103230 53
2012-01-11 06:31:48 51°17.738 2°52.44 6.8 245 9 103230 53
2012-01-11 06:31:52 51°17.751 2°52.441 7.5 21 9 103230 51
2012-01-11 06:31:57 51°17.767 2°52.443 5.5 246 9 103230 51
2012-01-11 06:32:03 51°17.787 2°52.447 6.2 20 9 103230 50
2012-01-11 06:32:08 51°17.803 2°52.452 5.9 250 9 103230 50
2012-01-11 06:32:12 51°17.817 2°52.455 6.3 252 9 103240 50
2012-01-11 06:32:16 51°17.829 2°52.46 5.3 251 9 103240 50
2012-01-11 06:32:22 51°17.849 2°52.466 5.9 248 9 103230 53
2012-01-11 06:32:28 51°17.868 2°52.474 6.2 246 9 103230 53
2012-01-11 06:32:32 51°17.881 2°52.478 4.9 22 9 103230 51
2012-01-11 06:32:36 51°17.894 2°52.483 5.3 249 9 103230 51
2012-01-11 06:32:42 51°17.913 2°52.49 5.2 249 9 103230 50
2012-01-11 06:32:48 51°17.932 2°52.497 5.8 249 9 103230 50
2012-01-11 06:32:52 51°17.945 2°52.503 6 19 9 103230 50
2012-01-11 06:32:57 51°17.96 2°52.511 6.6 254 9 103230 50
2012-01-11 06:33:03 51°17.979 2°52.52 4.4 251 9 103230 52
2012-01-11 06:33:08 51°17.994 2°52.53 5.1 252 9 103230 52
2012-01-11 06:33:12 51°18.006 2°52.537 4.4 253 9 103230 50
2012-01-11 06:33:17 51°18.021 2°52.548 5 250 9 103230 50
2012-01-11 06:33:22 51°18.036 2°52.56 3.7 255 9 103230 50
2012-01-11 06:33:28 51°18.053 2°52.575 4.6 261 9 103230 50
2012-01-11 06:33:32 51°18.063 2°52.587 4.7 260 9 103230 53
2012-01-11 06:33:36 51°18.074 2°52.598 2.5 263 9 103230 53
2012-01-11 06:33:42 51°18.09 2°52.616 3.2 259 9 103230 53
2012-01-11 06:33:48 51°18.105 2°52.635 2.8 259 9 103230 53
2012-01-11 06:33:52 51°18.114 2°52.648 2.3 257 9 103230 51
2012-01-11 06:33:58 51°18.128 2°52.669 0.8 267 9 103230 51
2012-01-11 06:34:02 51°18.137 2°52.684 1 270 9 103230 50
2012-01-11 06:34:08 51°18.149 2°52.707 0.9 306 9 103230 50
2012-01-11 06:34:12 51°18.157 2°52.724 0.4 24 9 103230 50
2012-01-11 06:34:17 51°18.165 2°52.745 0.1 39 9 103230 50
2012-01-11 06:34:23 51°18.176 2°52.77 0.1 26 9 103230 52
2012-01-11 06:34:28 51°18.183 2°52.792 0.1 34 9 103230 52
2012-01-11 06:34:32 51°18.19 2°52.81 0.1 23 9 103230 53
2012-01-11 06:34:37 51°18.197 2°52.832 -999 30 9 103230 53
2012-01-11 06:34:43 51°18.206 2°52.859 -999 347 9 103230 51
2012-01-11 06:34:48 51°18.213 2°52.882 -999 29 9 103230 51
2012-01-11 06:34:52 51°18.218 2°52.9 -999 19 9 103230 51
2012-01-11 06:34:57 51°18.225 2°52.923 -999 344 9 103230 51
2012-01-11 06:35:03 51°18.235 2°52.949 -999 343 9 103230 52
2012-01-11 06:35:08 51°18.241 2°52.972 -999 341 9 103230 52
2012-01-11 06:35:12 51°18.248 2°52.989 -999 335 9 103230 50
2012-01-11 06:35:17 51°18.255 2°53.012 -999 329 9 103230 50
2012-01-11 06:35:23 51°18.264 2°53.038 -999 22 9 103230 51
2012-01-11 06:35:28 51°18.272 2°53.061 -999 327 9 103230 51
2012-01-11 06:35:32 51°18.278 2°53.078 -999 23 9 103230 51
2012-01-11 06:35:37 51°18.286 2°53.1 -999 246 9 103230 51
2012-01-11 06:35:42 51°18.294 2°53.122 0.1 252 9 103230 51
2012-01-11 06:35:48 51°18.303 2°53.149 0.1 37 9 103230 51
2012-01-11 06:35:52 51°18.31 2°53.166 0.1 261 9 103220 51
2012-01-11 06:35:56 51°18.317 2°53.183 0.1 34 9 103220 51
2012-01-11 06:36:02 51°18.327 2°53.209 0.1 23 9 103230 51
2012-01-11 06:36:08 51°18.336 2°53.235 -999 35 9 103230 51
2012-01-11 06:36:12 51°18.343 2°53.252 0.1 23 9 103230 51
2012-01-11 06:36:17 51°18.35 2°53.274 0.5 32 9 103230 51
2012-01-11 06:36:22 51°18.359 2°53.295 0.3 21 9 103220 51
2012-01-11 06:36:28 51°18.368 2°53.321 0.5 38 9 103220 51
2012-01-11 06:36:32 51°18.375 2°53.339 0.2 25 9 103220 51
2012-01-11 06:36:37 51°18.383 2°53.361 0.1 35 9 103220 51
2012-01-11 06:36:42 51°18.39 2°53.382 0.1 23 9 103220 51
2012-01-11 06:36:48 51°18.4 2°53.408 -999 35 9 103220 51
2012-01-11 06:36:52 51°18.406 2°53.425 0.1 18 9 103220 51
2012-01-11 06:36:57 51°18.414 2°53.447 0.1 34 9 103220 51
2012-01-11 06:37:02 51°18.422 2°53.469 0.1 23 9 103220 51
2012-01-11 06:37:08 51°18.432 2°53.495 0.6 32 9 103220 51
2012-01-11 06:37:12 51°18.439 2°53.512 0.2 22 9 103220 51
2012-01-11 06:37:18 51°18.449 2°53.538 0.1 33 9 103220 51
2012-01-11 06:37:22 51°18.456 2°53.554 0.1 27 9 103220 49
2012-01-11 06:37:28 51°18.466 2°53.58 0.1 35 9 103220 49
2012-01-11 06:37:32 51°18.473 2°53.597 0.1 23 9 103220 51
2012-01-11 06:37:37 51°18.481 2°53.618 -999 34 9 103220 51
2012-01-11 06:37:43 51°18.491 2°53.644 -999 23 9 103220 51
2012-01-11 06:37:48 51°18.501 2°53.664 -999 270 9 103220 51
2012-01-11 06:37:52 51°18.507 2°53.681 -999 270 9 103220 50
2012-01-11 06:37:56 51°18.514 2°53.698 0.1 39 9 103220 50
2012-01-11 06:38:02 51°18.525 2°53.724 0.1 26 9 103220 51
2012-01-11 06:38:08 51°18.536 2°53.748 0.1 269 9 103220 51
2012-01-11 06:38:12 51°18.542 2°53.765 0.1 269 9 103220 51
2012-01-11 06:38:18 51°18.553 2°53.789 0.1 262 9 103220 51
2012-01-11 06:38:22 51°18.561 2°53.805 0.1 259 9 103220 51
2012-01-11 06:38:28 51°18.573 2°53.828 0.5 302 9 103220 51
2012-01-11 06:38:32 51°18.58 2°53.845 0.5 269 9 103220 51
2012-01-11 06:38:37 51°18.591 2°53.864 1 37 9 103220 51
2012-01-11 06:38:42 51°18.6 2°53.884 1.6 24 9 103220 50
2012-01-11 06:38:48 51°18.611 2°53.908 1.2 39 9 103220 50
2012-01-11 06:38:52 51°18.619 2°53.924 1.1 21 9 103220 53
2012-01-11 06:38:58 51°18.63 2°53.948 1.7 36 9 103220 53
2012-01-11 06:39:03 51°18.64 2°53.969 1.4 22 9 103220 52
2012-01-11 06:39:08 51°18.649 2°53.989 1.5 32 9 103220 52
2012-01-11 06:39:12 51°18.656 2°54.005 1.4 25 9 103220 52
2012-01-11 06:39:17 51°18.665 2°54.026 1.2 31 9 103220 52
2012-01-11 06:39:23 51°18.675 2°54.051 0.8 26 9 103220 53
2012-01-11 06:39:28 51°18.683 2°54.072 0.2 32 9 103220 53
2012-01-11 06:39:32 51°18.69 2°54.09 0.2 27 9 103220 50
2012-01-11 06:39:36 51°18.697 2°54.107 0.8 32 9 103220 50
2012-01-11 06:39:42 51°18.707 2°54.132 0.5 27 9 103220 51
2012-01-11 06:39:48 51°18.717 2°54.158 0.1 34 9 103220 51
2012-01-11 06:39:52 51°18.724 2°54.175 0.1 21 9 103220 51
2012-01-11 06:39:57 51°18.732 2°54.196 0.9 31 9 103220 51
2012-01-11 06:40:02 51°18.741 2°54.218 0.9 26 9 103210 51
2012-01-11 06:40:08 51°18.751 2°54.243 0.4 35 9 103210 51
2012-01-11 06:40:12 51°18.757 2°54.261 0.3 19 9 103220 51
2012-01-11 06:40:16 51°18.765 2°54.277 0.4 32 9 103220 51
2012-01-11 06:40:22 51°18.774 2°54.303 0.3 26 9 103210 54
2012-01-11 06:40:28 51°18.785 2°54.329 0.1 39 9 103210 54
2012-01-11 06:40:32 51°18.792 2°54.345 0.1 26 9 103220 50
2012-01-11 06:40:37 51°18.801 2°54.366 0.1 264 9 103220 50
2012-01-11 06:40:42 51°18.809 2°54.387 0.7 263 9 103210 51
2012-01-11 06:40:48 51°18.82 2°54.411 0.8 38 9 103210 51
2012-01-11 06:40:52 51°18.828 2°54.427 0.5 267 9 103220 51
2012-01-11 06:40:57 51°18.837 2°54.447 1.1 37 9 103220 51
2012-01-11 06:41:03 51°18.849 2°54.471 1.5 24 9 103220 50
2012-01-11 06:41:08 51°18.859 2°54.49 0.8 38 9 103220 50
2012-01-11 06:41:12 51°18.867 2°54.507 1.3 25 9 103220 51
2012-01-11 06:41:16 51°18.874 2°54.523 0.6 34 9 103220 51
2012-01-11 06:41:22 51°18.885 2°54.547 0.8 28 9 103220 51
2012-01-11 06:41:28 51°18.896 2°54.572 0.3 35 9 103220 51
2012-01-11 06:41:32 51°18.904 2°54.588 0.4 19 9 103220 53
2012-01-11 06:41:38 51°18.915 2°54.613 0.3 39 9 103220 53
2012-01-11 06:41:43 51°18.924 2°54.633 0.2 26 9 103220 51
2012-01-11 06:41:48 51°18.933 2°54.654 0.2 33 9 103220 51
2012-01-11 06:41:52 51°18.941 2°54.671 0.2 22 9 103220 51
2012-01-11 06:41:57 51°18.949 2°54.691 0.1 35 9 103220 51
2012-01-11 06:42:03 51°18.96 2°54.716 0.6 23 9 103220 51
2012-01-11 06:42:08 51°18.969 2°54.737 1 33 9 103220 51
2012-01-11 06:42:12 51°18.976 2°54.754 0.4 22 9 103220 51
2012-01-11 06:42:17 51°18.985 2°54.774 0.5 35 9 103220 51
2012-01-11 06:42:23 51°18.996 2°54.8 0.8 28 9 103220 49
2012-01-11 06:42:28 51°19.004 2°54.82 0.4 34 9 103220 49
2012-01-11 06:42:32 51°19.01 2°54.837 0.2 27 9 103220 50
2012-01-11 06:42:37 51°19.019 2°54.858 0.6 33 9 103220 50
2012-01-11 06:42:42 51°19.027 2°54.879 0.5 21 9 103220 51
2012-01-11 06:42:48 51°19.037 2°54.904 0.7 33 9 103220 51
2012-01-11 06:42:52 51°19.044 2°54.921 0.4 27 9 103220 51
2012-01-11 06:42:58 51°19.053 2°54.947 0.4 270 9 103220 51
2012-01-11 06:43:02 51°19.061 2°54.964 0.4 270 9 103220 51
2012-01-11 06:43:08 51°19.071 2°54.989 0.3 54 9 103220 51
2012-01-11 06:43:12 51°19.077 2°55.006 0.5 28 9 103220 52
2012-01-11 06:43:17 51°19.086 2°55.027 0.4 34 9 103220 52
2012-01-11 06:43:22 51°19.095 2°55.047 0.3 23 9 103230 51
2012-01-11 06:43:28 51°19.104 2°55.073 0.2 34 9 103230 51
2012-01-11 06:43:32 51°19.111 2°55.09 0.2 23 9 103220 50
2012-01-11 06:43:38 51°19.121 2°55.116 0.1 32 9 103220 50
2012-01-11 06:43:43 51°19.13 2°55.137 0.9 18 9 103220 50
2012-01-11 06:43:48 51°19.139 2°55.158 0.8 327 9 103220 50
2012-01-11 06:43:52 51°19.146 2°55.173 0.6 25 9 103220 51
2012-01-11 06:43:57 51°19.155 2°55.194 1.4 33 9 103220 51
2012-01-11 06:44:03 51°19.167 2°55.218 1.1 22 9 103220 49
2012-01-11 06:44:08 51°19.175 2°55.238 0.8 32 9 103220 49
2012-01-11 06:44:12 51°19.183 2°55.253 1.1 27 9 103220 52
2012-01-11 06:44:17 51°19.192 2°55.274 0.4 265 9 103220 52
2012-01-11 06:44:22 51°19.202 2°55.293 0.3 265 8.9 103220 53
2012-01-11 06:44:28 51°19.213 2°55.318 0.2 33 8.9 103220 53
2012-01-11 06:44:32 51°19.221 2°55.333 0.5 27 9 103220 51
2012-01-11 06:44:37 51°19.23 2°55.354 0.3 36 9 103220 51
2012-01-11 06:44:43 51°19.241 2°55.377 1.3 24 9 103230 51
2012-01-11 06:44:48 51°19.25 2°55.398 0.9 37 9 103230 51
2012-01-11 06:44:52 51°19.257 2°55.415 1.4 20 9 103220 50
2012-01-11 06:44:57 51°19.266 2°55.435 0.7 33 9 103220 50
2012-01-11 06:45:02 51°19.275 2°55.456 0.7 27 9 103220 52
2012-01-11 06:45:08 51°19.286 2°55.48 1.1 33 9 103220 52
2012-01-11 06:45:12 51°19.293 2°55.496 0.9 22 9 103220 51
2012-01-11 06:45:18 51°19.305 2°55.521 1.3 269 9 103220 51
2012-01-11 06:45:22 51°19.312 2°55.537 1.2 29 9 103230 51
2012-01-11 06:45:28 51°19.323 2°55.562 2.2 34 9 103230 51
2012-01-11 06:45:32 51°19.33 2°55.578 1.6 27 8.9 103220 50
2012-01-11 06:45:37 51°19.339 2°55.598 1.4 31 8.9 103220 50
2012-01-11 06:45:43 51°19.35 2°55.623 1.5 21 8.9 103230 53
2012-01-11 06:45:48 51°19.358 2°55.643 0.7 38 8.9 103230 53
2012-01-11 06:45:52 51°19.365 2°55.66 1.1 26 8.9 103230 52
2012-01-11 06:45:57 51°19.373 2°55.681 1.6 39 8.9 103230 52
2012-01-11 06:46:03 51°19.383 2°55.706 1.6 23 9 103230 53
2012-01-11 06:46:08 51°19.391 2°55.727 1.7 34 9 103230 53
2012-01-11 06:46:12 51°19.398 2°55.744 1.3 25 8.9 103230 51
2012-01-11 06:46:17 51°19.407 2°55.765 1.3 50 8.9 103230 51
2012-01-11 06:46:23 51°19.417 2°55.79 0.8 270 9 103230 52
2012-01-11 06:46:28 51°19.427 2°55.809 1.5 34 9 103230 52
2012-01-11 06:46:32 51°19.434 2°55.825 1.2 20 8.9 103220 49
2012-01-11 06:46:37 51°19.444 2°55.844 2.2 49 8.9 103220 49
2012-01-11 06:46:43 51°19.455 2°55.868 1.9 19 8.9 103220 51
2012-01-11 06:46:48 51°19.465 2°55.887 1.9 31 8.9 103220 51
2012-01-11 06:46:52 51°19.473 2°55.904 1.8 26 8.9 103230 50
2012-01-11 06:46:57 51°19.482 2°55.924 0.5 8 8.9 103230 50
2012-01-11 06:47:02 51°19.491 2°55.944 0.6 266 8.9 103220 51
2012-01-11 06:47:08 51°19.503 2°55.968 1.4 37 8.9 103220 51
2012-01-11 06:47:12 51°19.51 2°55.985 1.2 264 8.9 103220 53
2012-01-11 06:47:18 51°19.521 2°56.009 0.5 306 8.9 103220 53
2012-01-11 06:47:22 51°19.528 2°56.025 0.8 270 8.9 103220 51
2012-01-11 06:47:28 51°19.54 2°56.048 0.4 262 8.9 103220 51
2012-01-11 06:47:32 51°19.547 2°56.065 0.4 264 8.9 103230 52
2012-01-11 06:47:38 51°19.56 2°56.087 0.5 61 8.9 103230 52
2012-01-11 06:47:43 51°19.569 2°56.107 0.3 23 8.9 103230 52
2012-01-11 06:47:48 51°19.579 2°56.127 1.6 86 8.9 103230 52
2012-01-11 06:47:52 51°19.587 2°56.142 1.6 20 8.9 103220 52
2012-01-11 06:47:57 51°19.596 2°56.162 0.6 31 8.9 103220 52
2012-01-11 06:48:03 51°19.606 2°56.187 0.4 21 8.9 103230 49
2012-01-11 06:48:08 51°19.614 2°56.208 0.2 57 8.9 103230 49
2012-01-11 06:48:12 51°19.621 2°56.225 0.4 270 8.9 103230 53
2012-01-11 06:48:16 51°19.628 2°56.241 0.1 36 8.9 103230 53
2012-01-11 06:48:22 51°19.638 2°56.267 0.1 24 8.9 103230 51
2012-01-11 06:48:28 51°19.647 2°56.292 0.2 59 8.9 103230 51
2012-01-11 06:48:32 51°19.654 2°56.309 0.6 20 8.9 103230 50
2012-01-11 06:48:37 51°19.662 2°56.33 0.2 56 8.9 103230 50
2012-01-11 06:48:43 51°19.672 2°56.355 0.2 20 8.9 103230 51
2012-01-11 06:48:48 51°19.68 2°56.376 0.1 258 8.9 103230 51
2012-01-11 06:48:52 51°19.687 2°56.392 0.1 263 8.9 103220 51
2012-01-11 06:48:57 51°19.696 2°56.413 0.8 57 8.9 103220 51
2012-01-11 06:49:03 51°19.707 2°56.438 0.7 22 8.9 103230 51
2012-01-11 06:49:08 51°19.716 2°56.458 0.2 35 8.9 103230 51
2012-01-11 06:49:12 51°19.723 2°56.475 0.1 19 8.9 103220 51
2012-01-11 06:49:17 51°19.732 2°56.495 0.8 36 8.9 103220 51
2012-01-11 06:49:22 51°19.741 2°56.516 1 21 8.9 103230 53
2012-01-11 06:49:28 51°19.751 2°56.541 0.9 38 8.9 103230 53
2012-01-11 06:49:32 51°19.758 2°56.557 0.7 20 8.9 103230 51
2012-01-11 06:49:38 51°19.769 2°56.582 0.3 52 8.9 103230 51
2012-01-11 06:49:42 51°19.776 2°56.598 0.7 26 8.9 103220 52
2012-01-11 06:49:48 51°19.787 2°56.622 0.5 52 8.9 103220 52
2012-01-11 06:49:52 51°19.794 2°56.639 0.6 27 8.9 103230 51
2012-01-11 06:49:58 51°19.805 2°56.663 0.4 56 8.9 103230 51
2012-01-11 06:50:03 51°19.813 2°56.684 0.2 267 8.9 103230 52
2012-01-11 06:50:08 51°19.822 2°56.704 0.2 304 8.9 103230 52
2012-01-11 06:50:12 51°19.829 2°56.72 0.3 261 8.9 103230 51
2012-01-11 06:50:17 51°19.838 2°56.74 0.1 255 8.9 103230 51
2012-01-11 06:50:23 51°19.85 2°56.764 0.1 255 8.9 103230 51
2012-01-11 06:50:28 51°19.86 2°56.783 0.7 311 8.9 103230 51
2012-01-11 06:50:32 51°19.867 2°56.798 1 251 8.9 103220 51
2012-01-11 06:50:38 51°19.879 2°56.821 1.9 38 8.9 103220 51
2012-01-11 06:50:43 51°19.889 2°56.84 1.6 23 8.9 103230 51
2012-01-11 06:50:48 51°19.898 2°56.86 1.2 39 8.9 103230 51
2012-01-11 06:50:52 51°19.906 2°56.876 1.6 20 8.9 103220 51
2012-01-11 06:50:57 51°19.914 2°56.896 1.4 58 8.9 103220 51
2012-01-11 06:51:03 51°19.925 2°56.92 1.9 21 8.9 103220 51
2012-01-11 06:51:08 51°19.933 2°56.941 1.7 33 8.9 103220 51
2012-01-11 06:51:12 51°19.94 2°56.957 1.7 22 8.9 103220 48
2012-01-11 06:51:17 51°19.948 2°56.978 1.4 52 8.9 103220 48
2012-01-11 06:51:22 51°19.957 2°56.999 1.4 22 8.9 103230 50
2012-01-11 06:51:28 51°19.967 2°57.024 0.9 37 8.9 103230 50
2012-01-11 06:51:32 51°19.975 2°57.039 0.6 28 8.9 103220 50
2012-01-11 06:51:37 51°19.984 2°57.059 1.1 34 8.9 103220 50
2012-01-11 06:51:42 51°19.993 2°57.078 0.6 268 8.9 103220 51
2012-01-11 06:51:48 51°20.004 2°57.102 1.1 260 8.9 103220 51
2012-01-11 06:51:52 51°20.012 2°57.117 0.5 261 8.9 103220 51
2012-01-11 06:51:58 51°20.023 2°57.141 0.5 306 8.9 103220 51
2012-01-11 06:52:02 51°20.031 2°57.156 1 269 8.9 103230 52
2012-01-11 06:52:08 51°20.042 2°57.18 1.7 51 8.9 103230 52
2012-01-11 06:52:12 51°20.05 2°57.195 1.4 27 8.9 103220 51
2012-01-11 06:52:18 51°20.061 2°57.219 1.4 52 8.9 103220 51
2012-01-11 06:52:23 51°20.071 2°57.238 0.6 20 8.9 103230 51
2012-01-11 06:52:28 51°20.08 2°57.258 1.7 58 8.9 103230 51
2012-01-11 06:52:32 51°20.087 2°57.274 2 27 8.9 103230 52
2012-01-11 06:52:37 51°20.095 2°57.295 0.8 34 8.9 103230 52
2012-01-11 06:52:43 51°20.106 2°57.318 1.3 23 8.9 103230 51
2012-01-11 06:52:48 51°20.115 2°57.339 0.6 52 8.9 103230 51
2012-01-11 06:52:52 51°20.122 2°57.355 0.8 22 8.9 103230 52
2012-01-11 06:52:57 51°20.13 2°57.375 0.4 52 8.9 103230 52
2012-01-11 06:53:03 51°20.141 2°57.4 0.8 22 8.9 103220 49
2012-01-11 06:53:08 51°20.148 2°57.421 0.3 267 8.9 103220 49
2012-01-11 06:53:12 51°20.156 2°57.437 0.2 23 8.9 103230 49
2012-01-11 06:53:17 51°20.164 2°57.457 0.8 56 8.9 103230 49
2012-01-11 06:53:22 51°20.173 2°57.477 0.5 269 8.9 103230 51
2012-01-11 06:53:28 51°20.183 2°57.502 0.3 267 8.9 103230 51
2012-01-11 06:53:32 51°20.19 2°57.517 0.2 26 8.9 103230 51
2012-01-11 06:53:37 51°20.199 2°57.537 0.6 61 8.9 103230 51
2012-01-11 06:53:42 51°20.207 2°57.558 1.2 21 8.9 103230 51
2012-01-11 06:53:48 51°20.217 2°57.582 0.9 32 8.9 103230 51
2012-01-11 06:53:52 51°20.223 2°57.598 0.7 26 8.8 103230 52
2012-01-11 06:53:58 51°20.233 2°57.622 0.2 52 8.8 103230 52
2012-01-11 06:54:02 51°20.24 2°57.639 0.7 22 8.9 103230 52
2012-01-11 06:54:08 51°20.25 2°57.662 0.7 38 8.9 103230 52
2012-01-11 06:54:12 51°20.257 2°57.678 1.6 26 8.9 103230 51
2012-01-11 06:54:18 51°20.268 2°57.701 1.8 57 8.9 103230 51
2012-01-11 06:54:23 51°20.277 2°57.721 1.3 26 8.9 103230 51
2012-01-11 06:54:28 51°20.286 2°57.74 1.5 57 8.9 103230 51
2012-01-11 06:54:32 51°20.294 2°57.755 0.6 20 8.9 103230 50
2012-01-11 06:54:37 51°20.303 2°57.775 0.2 256 8.9 103230 50
2012-01-11 06:54:43 51°20.315 2°57.797 0.4 263 8.8 103230 50
2012-01-11 06:54:48 51°20.324 2°57.816 0.2 56 8.8 103230 50
2012-01-11 06:54:52 51°20.332 2°57.831 0.3 263 8.9 103230 51
2012-01-11 06:54:58 51°20.344 2°57.855 0.3 270 8.9 103230 51
2012-01-11 06:55:02 51°20.352 2°57.87 0.7 25 8.8 103230 50
2012-01-11 06:55:08 51°20.363 2°57.894 0.1 267 8.8 103230 50
2012-01-11 06:55:12 51°20.37 2°57.909 0.2 269 8.8 103230 51
2012-01-11 06:55:18 51°20.381 2°57.934 0.1 54 8.8 103230 51
2012-01-11 06:55:23 51°20.391 2°57.953 0.2 30 8.8 103230 53
2012-01-11 06:55:28 51°20.399 2°57.973 0.4 34 8.8 103230 53
2012-01-11 06:55:32 51°20.407 2°57.989 0.4 26 8.8 103230 51
2012-01-11 06:55:37 51°20.415 2°58.009 0.3 313 8.8 103230 51
2012-01-11 06:55:43 51°20.427 2°58.032 0.2 269 8.8 103230 51
2012-01-11 06:55:48 51°20.436 2°58.052 0.2 267 8.8 103230 51
2012-01-11 06:55:52 51°20.443 2°58.068 0.3 23 8.8 103230 51
2012-01-11 06:55:58 51°20.454 2°58.091 0.2 304 8.8 103230 51
2012-01-11 06:56:02 51°20.461 2°58.108 0.2 23 8.8 103230 51
2012-01-11 06:56:08 51°20.472 2°58.131 0.1 33 8.8 103230 51
2012-01-11 06:56:12 51°20.479 2°58.148 0.1 261 8.8 103230 49
2012-01-11 06:56:18 51°20.49 2°58.172 0.1 303 8.8 103230 49
2012-01-11 06:56:23 51°20.499 2°58.192 0.2 270 8.8 103230 51
2012-01-11 06:56:28 51°20.509 2°58.212 0.2 258 8.8 103230 51
2012-01-11 06:56:32 51°20.516 2°58.228 0.1 258 8.8 103230 50
2012-01-11 06:56:37 51°20.525 2°58.248 -999 263 8.8 103230 50
2012-01-11 06:56:42 51°20.534 2°58.269 -999 270 8.8 103230 53
2012-01-11 06:56:48 51°20.544 2°58.293 0.1 56 8.8 103230 53
2012-01-11 06:56:52 51°20.551 2°58.31 0.1 29 8.8 103240 51
2012-01-11 06:56:58 51°20.561 2°58.334 0.1 54 8.8 103240 51
2012-01-11 06:57:02 51°20.568 2°58.351 0.1 23 8.8 103230 51
2012-01-11 06:57:08 51°20.578 2°58.375 -999 35 8.8 103230 51
2012-01-11 06:57:12 51°20.585 2°58.391 -999 267 8.8 103230 51
2012-01-11 06:57:18 51°20.596 2°58.415 1.3 52 8.8 103230 51
2012-01-11 06:57:23 51°20.606 2°58.434 0.8 25 8.8 103230 51
2012-01-11 06:57:28 51°20.615 2°58.454 0.2 267 8.8 103230 51
2012-01-11 06:57:32 51°20.623 2°58.469 0.8 20 8.8 103240 52
2012-01-11 06:57:38 51°20.634 2°58.493 1.6 33 8.8 103240 52
2012-01-11 06:57:43 51°20.643 2°58.513 1.5 27 8.8 103230 51
2012-01-11 06:57:48 51°20.652 2°58.533 1.3 79 8.8 103230 51
2012-01-11 06:57:52 51°20.659 2°58.548 1.2 30 8.8 103230 51
2012-01-11 06:57:58 51°20.67 2°58.572 0.2 53 8.8 103230 51
2012-01-11 06:58:03 51°20.68 2°58.592 0.2 270 8.8 103230 50
2012-01-11 06:58:08 51°20.689 2°58.611 0.1 261 8.8 103230 50
2012-01-11 06:58:12 51°20.696 2°58.627 0.1 264 8.8 103230 53
2012-01-11 06:58:17 51°20.705 2°58.647 0.1 53 8.8 103230 53
2012-01-11 06:58:23 51°20.715 2°58.671 0.1 26 8.8 103240 51
2012-01-11 06:58:28 51°20.724 2°58.692 0.1 32 8.8 103240 51
2012-01-11 06:58:32 51°20.73 2°58.708 0.3 21 8.8 103240 51
2012-01-11 06:58:37 51°20.739 2°58.728 0.1 32 8.8 103240 51
2012-01-11 06:58:43 51°20.75 2°58.752 0.2 21 8.8 103240 51
2012-01-11 06:58:48 51°20.759 2°58.772 0.2 261 8.8 103240 51
2012-01-11 06:58:52 51°20.766 2°58.788 0.2 256 8.8 103230 51
2012-01-11 06:58:58 51°20.777 2°58.811 0.1 305 8.8 103230 51
2012-01-11 06:59:02 51°20.784 2°58.827 0.1 262 8.8 103240 52
2012-01-11 06:59:08 51°20.795 2°58.851 0.1 254 8.8 103240 52
2012-01-11 06:59:12 51°20.803 2°58.866 0.1 32 8.8 103240 50
2012-01-11 06:59:18 51°20.814 2°58.889 0.3 301 8.8 103240 50
2012-01-11 06:59:23 51°20.823 2°58.909 0.2 259 8.8 103240 51
2012-01-11 06:59:28 51°20.832 2°58.928 0.1 63 8.8 103240 51
2012-01-11 06:59:32 51°20.839 2°58.944 0.7 24 8.8 103240 51
2012-01-11 06:59:37 51°20.849 2°58.964 0.3 34 8.8 103240 51
2012-01-11 06:59:42 51°20.858 2°58.984 0.3 264 8.8 103240 51
2012-01-11 06:59:48 51°20.869 2°59.007 0.1 282 8.8 103240 51
2012-01-11 06:59:52 51°20.876 2°59.022 0.1 256 8.8 103240 51
2012-01-11 06:59:58 51°20.888 2°59.046 0.3 251 8.8 103240 51
2012-01-11 07:00:03 51°20.897 2°59.065 0.2 252 8.7 103240 51
2012-01-11 07:00:08 51°20.906 2°59.085 0.1 252 8.7 103240 51
2012-01-11 07:00:12 51°20.914 2°59.1 0.6 18 8.8 103240 51
2012-01-11 07:00:17 51°20.923 2°59.12 0.3 303 8.8 103240 51
2012-01-11 07:00:22 51°20.933 2°59.139 0.1 19 8.8 103240 51
2012-01-11 07:00:28 51°20.944 2°59.162 0.1 254 8.8 103240 51
2012-01-11 07:00:32 51°20.951 2°59.178 0.1 254 8.8 103240 50
2012-01-11 07:00:37 51°20.961 2°59.198 0.1 266 8.8 103240 50
2012-01-11 07:00:42 51°20.969 2°59.218 0.1 262 8.8 103240 52
2012-01-11 07:00:48 51°20.98 2°59.242 0.1 256 8.8 103240 52
2012-01-11 07:00:52 51°20.988 2°59.258 0.2 256 8.7 103240 51
2012-01-11 07:00:58 51°20.999 2°59.282 0.2 304 8.7 103240 51
2012-01-11 07:01:02 51°21.006 2°59.298 0.2 262 8.7 103240 51
2012-01-11 07:01:08 51°21.016 2°59.322 0.3 309 8.7 103240 51
2012-01-11 07:01:12 51°21.024 2°59.337 0.2 270 8.7 103240 51
2012-01-11 07:01:18 51°21.034 2°59.362 0.1 57 8.7 103240 51
2012-01-11 07:01:23 51°21.042 2°59.382 0.1 270 8.7 103240 50
2012-01-11 07:01:28 51°21.051 2°59.403 0.3 304 8.7 103240 50
2012-01-11 07:01:32 51°21.058 2°59.419 0.4 261 8.7 103240 51
2012-01-11 07:01:37 51°21.066 2°59.439 0.1 257 8.7 103240 51
2012-01-11 07:01:43 51°21.077 2°59.463 0.1 249 8.7 103240 51
2012-01-11 07:01:48 51°21.085 2°59.484 0.1 282 8.7 103240 51
2012-01-11 07:01:52 51°21.093 2°59.5 0.3 261 8.7 103240 50
2012-01-11 07:01:58 51°21.103 2°59.524 0.1 42 8.7 103240 50
2012-01-11 07:02:03 51°21.112 2°59.544 0.1 23 8.7 103250 52
2012-01-11 07:02:08 51°21.121 2°59.565 0.1 254 8.7 103250 52
2012-01-11 07:02:12 51°21.128 2°59.581 0.1 253 8.7 103240 51
2012-01-11 07:02:17 51°21.136 2°59.601 0.2 304 8.7 103240 51
2012-01-11 07:02:23 51°21.147 2°59.625 0.2 262 8.7 103240 51
2012-01-11 07:02:28 51°21.157 2°59.644 0.2 255 8.7 103240 51
2012-01-11 07:02:32 51°21.164 2°59.66 0.1 259 8.7 103250 51
2012-01-11 07:02:37 51°21.174 2°59.679 0.6 257 8.7 103250 51
2012-01-11 07:02:42 51°21.183 2°59.698 1.2 256 8.7 103240 51
2012-01-11 07:02:48 51°21.194 2°59.722 1.2 256 8.7 103240 51
2012-01-11 07:02:52 51°21.202 2°59.737 1.5 257 8.7 103240 53
2012-01-11 07:02:58 51°21.214 2°59.76 1.1 308 8.7 103240 53
2012-01-11 07:03:02 51°21.222 2°59.775 0.8 250 8.7 103250 51
2012-01-11 07:03:08 51°21.233 2°59.798 0.9 254 8.7 103250 51
2012-01-11 07:03:12 51°21.242 2°59.813 1.1 253 8.7 103240 51
2012-01-11 07:03:18 51°21.254 2°59.836 0.6 308 8.7 103240 51
2012-01-11 07:03:23 51°21.263 2°59.855 0.2 253 8.7 103250 49
2012-01-11 07:03:28 51°21.273 2°59.875 0.5 303 8.7 103250 49
2012-01-11 07:03:32 51°21.28 2°59.891 0.5 7 8.7 103240 49
2012-01-11 07:03:37 51°21.289 2°59.91 0.5 270 8.7 103240 49
2012-01-11 07:03:43 51°21.3 2°59.935 0.3 270 8.7 103250 51
2012-01-11 07:03:48 51°21.309 2°59.955 0.4 287 8.7 103250 51
2012-01-11 07:03:52 51°21.315 2°59.971 0.2 262 8.7 103240 51
2012-01-11 07:03:58 51°21.325 2°59.996 0.2 36 8.7 103240 51
2012-01-11 07:04:02 51°21.332 3°0.012 0.3 265 8.7 103250 51
2012-01-11 07:04:08 51°21.343 3°0.037 0.7 43 8.7 103250 51
2012-01-11 07:04:12 51°21.349 3°0.053 0.4 23 8.7 103240 52
2012-01-11 07:04:17 51°21.359 3°0.073 0.2 303 8.7 103240 52
2012-01-11 07:04:23 51°21.369 3°0.098 0.3 22 8.7 103250 53
2012-01-11 07:04:28 51°21.377 3°0.118 0.3 31 8.7 103250 53
2012-01-11 07:04:32 51°21.384 3°0.134 0.2 21 8.7 103240 48
2012-01-11 07:04:37 51°21.393 3°0.155 0.2 52 8.7 103240 48
2012-01-11 07:04:43 51°21.403 3°0.179 0.1 262 8.7 103250 50
2012-01-11 07:04:48 51°21.412 3°0.199 0.2 265 8.7 103250 50
2012-01-11 07:04:52 51°21.418 3°0.215 0.2 265 8.7 103240 50
2012-01-11 07:04:58 51°21.429 3°0.24 0.4 58 8.7 103240 50
2012-01-11 07:05:02 51°21.436 3°0.256 0.6 21 8.7 103250 52
2012-01-11 07:05:08 51°21.447 3°0.279 0.2 265 8.7 103250 52
2012-01-11 07:05:12 51°21.454 3°0.296 0.1 255 8.7 103250 51
2012-01-11 07:05:18 51°21.465 3°0.319 0.5 304 8.7 103250 51
2012-01-11 07:05:23 51°21.475 3°0.338 1.4 21 8.7 103240 50
2012-01-11 07:05:28 51°21.484 3°0.358 1.8 259 8.7 103240 50
2012-01-11 07:05:32 51°21.491 3°0.373 0.7 260 8.7 103250 50
2012-01-11 07:05:37 51°21.501 3°0.393 0.3 263 8.7 103250 50
2012-01-11 07:05:43 51°21.512 3°0.416 0.7 257 8.7 103250 52
2012-01-11 07:05:48 51°21.521 3°0.436 0.6 286 8.7 103250 52
2012-01-11 07:05:52 51°21.528 3°0.452 0.2 19 8.7 103240 51
2012-01-11 07:05:58 51°21.54 3°0.475 0.3 302 8.7 103240 51
2012-01-11 07:06:02 51°21.546 3°0.492 0.4 261 8.7 103250 50
2012-01-11 07:06:08 51°21.556 3°0.517 0.1 258 8.7 103250 50
2012-01-11 07:06:12 51°21.563 3°0.533 0.2 270 8.7 103240 51
2012-01-11 07:06:17 51°21.571 3°0.554 0.1 266 8.7 103240 51
2012-01-11 07:06:22 51°21.579 3°0.575 0.1 270 8.7 103240 51
2012-01-11 07:06:28 51°21.588 3°0.601 0.3 36 8.7 103240 51
2012-01-11 07:06:32 51°21.594 3°0.618 0.2 19 8.7 103250 51
2012-01-11 07:06:38 51°21.603 3°0.643 0.1 238 8.7 103250 51
2012-01-11 07:06:43 51°21.611 3°0.665 0.1 24 8.7 103240 52
2012-01-11 07:06:48 51°21.618 3°0.686 0.1 307 8.7 103240 52
2012-01-11 07:06:52 51°21.624 3°0.703 0.1 267 8.7 103240 51
2012-01-11 07:06:56 51°21.63 3°0.72 0.2 255 8.7 103240 51
2012-01-11 07:07:02 51°21.639 3°0.745 0.1 256 8.7 103240 51
2012-01-11 07:07:08 51°21.648 3°0.77 0.1 309 8.7 103240 51
2012-01-11 07:07:12 51°21.654 3°0.787 0.1 254 8.7 103240 50
2012-01-11 07:07:18 51°21.663 3°0.812 0.1 309 8.7 103240 50
2012-01-11 07:07:22 51°21.669 3°0.829 0.1 266 8.7 103240 51
2012-01-11 07:07:28 51°21.679 3°0.854 -999 40 8.7 103240 51
2012-01-11 07:07:32 51°21.685 3°0.87 0.1 21 8.7 103240 51
2012-01-11 07:07:38 51°21.695 3°0.895 0.2 306 8.7 103240 51
2012-01-11 07:07:43 51°21.703 3°0.915 0.1 260 8.7 103240 51
2012-01-11 07:07:48 51°21.711 3°0.936 0.1 268 8.7 103240 51
2012-01-11 07:07:52 51°21.718 3°0.952 0.2 270 8.7 103240 50
2012-01-11 07:07:57 51°21.726 3°0.971 0.3 30 8.7 103240 50
2012-01-11 07:08:03 51°21.736 3°0.996 0.2 270 8.7 103240 51
2012-01-11 07:08:08 51°21.745 3°1.015 0.3 309 8.7 103240 51
2012-01-11 07:08:12 51°21.752 3°1.031 0.4 28 8.7 103240 51
2012-01-11 07:08:18 51°21.763 3°1.054 0.3 304 8.7 103240 51
2012-01-11 07:08:22 51°21.769 3°1.071 0.2 261 8.7 103240 53
2012-01-11 07:08:28 51°21.78 3°1.094 0.4 39 8.7 103240 53
2012-01-11 07:08:32 51°21.787 3°1.11 0.2 270 8.7 103240 48
2012-01-11 07:08:38 51°21.797 3°1.133 0.2 312 8.7 103240 48
2012-01-11 07:08:43 51°21.806 3°1.153 0.6 30 8.7 103240 51
2012-01-11 07:08:48 51°21.814 3°1.172 0.1 36 8.7 103240 51
2012-01-11 07:08:52 51°21.821 3°1.188 0.1 24 8.7 103240 51
2012-01-11 07:08:57 51°21.83 3°1.208 0.1 49 8.7 103240 51
2012-01-11 07:09:03 51°21.84 3°1.231 0.2 265 8.7 103240 51
2012-01-11 07:09:08 51°21.848 3°1.251 0.1 306 8.7 103240 51
2012-01-11 07:09:12 51°21.855 3°1.267 0.1 266 8.7 103240 51
2012-01-11 07:09:18 51°21.865 3°1.291 0.1 52 8.7 103240 51
2012-01-11 07:09:22 51°21.871 3°1.307 0.1 22 8.7 103240 51
2012-01-11 07:09:28 51°21.881 3°1.332 0.1 34 8.7 103240 51
2012-01-11 07:09:32 51°21.887 3°1.348 0.1 23 8.7 103240 51
2012-01-11 07:09:37 51°21.894 3°1.369 0.1 54 8.7 103240 51
2012-01-11 07:09:42 51°21.902 3°1.39 0.1 19 8.7 103240 51
2012-01-11 07:09:48 51°21.911 3°1.415 0.1 35 8.7 103240 51
2012-01-11 07:09:52 51°21.917 3°1.432 0.1 24 8.7 103240 50
2012-01-11 07:09:58 51°21.926 3°1.457 0.2 51 8.7 103240 50
2012-01-11 07:10:03 51°21.934 3°1.478 0.2 27 8.7 103240 52
2012-01-11 07:10:08 51°21.941 3°1.499 0.1 57 8.7 103240 52
2012-01-11 07:10:12 51°21.947 3°1.515 0.1 21 8.7 103240 51
2012-01-11 07:10:17 51°21.955 3°1.536 0.1 37 8.7 103240 51
2012-01-11 07:10:23 51°21.964 3°1.561 0.1 25 8.7 103240 51
2012-01-11 07:10:28 51°21.972 3°1.581 0.4 51 8.7 103240 51
2012-01-11 07:10:32 51°21.979 3°1.597 0.5 269 8.7 103240 51
2012-01-11 07:10:38 51°21.989 3°1.621 0.6 31 8.7 103240 51
2012-01-11 07:10:42 51°21.996 3°1.637 0.5 26 8.7 103240 51
2012-01-11 07:10:48 51°22.006 3°1.66 0.3 261 8.7 103240 51
2012-01-11 07:10:52 51°22.013 3°1.676 0.5 255 8.7 103240 51
2012-01-11 07:10:57 51°22.021 3°1.696 0.1 36 8.7 103240 51
2012-01-11 07:11:03 51°22.032 3°1.72 0.7 29 8.7 103230 51
2012-01-11 07:11:08 51°22.04 3°1.74 0.4 269 8.7 103230 51
2012-01-11 07:11:12 51°22.047 3°1.756 0.3 269 8.7 103240 51
2012-01-11 07:11:18 51°22.057 3°1.779 0.2 306 8.7 103240 51
2012-01-11 07:11:23 51°22.066 3°1.799 0.2 267 8.7 103240 51
2012-01-11 07:11:28 51°22.075 3°1.818 0.6 34 8.7 103240 51
2012-01-11 07:11:32 51°22.082 3°1.834 0.7 23 8.7 103240 51
2012-01-11 07:11:37 51°22.091 3°1.853 0.6 34 8.7 103240 51
2012-01-11 07:11:42 51°22.1 3°1.872 0.3 23 8.7 103230 51
2012-01-11 07:11:48 51°22.111 3°1.895 0.1 266 8.7 103230 51
2012-01-11 07:11:52 51°22.117 3°1.911 0.1 31 8.6 103240 51
2012-01-11 07:11:58 51°22.128 3°1.934 0.3 301 8.6 103240 51
2012-01-11 07:12:02 51°22.135 3°1.95 0.1 267 8.6 103240 51
2012-01-11 07:12:08 51°22.146 3°1.974 0.3 270 8.6 103240 51
2012-01-11 07:12:12 51°22.152 3°1.99 0.5 27 8.7 103240 51
2012-01-11 07:12:17 51°22.161 3°2.009 0.6 51 8.7 103240 51
2012-01-11 07:12:22 51°22.169 3°2.03 0.4 22 8.6 103240 50
2012-01-11 07:12:28 51°22.179 3°2.054 0.3 53 8.6 103240 50
2012-01-11 07:12:32 51°22.185 3°2.071 0.3 21 8.6 103240 50
2012-01-11 07:12:38 51°22.193 3°2.096 0.1 56 8.6 103240 50
2012-01-11 07:12:43 51°22.201 3°2.117 0.2 19 8.6 103240 51
2012-01-11 07:12:48 51°22.208 3°2.138 0.7 78 8.6 103240 51
2012-01-11 07:12:52 51°22.214 3°2.154 0.2 270 8.6 103240 51
2012-01-11 07:12:57 51°22.221 3°2.175 0.1 260 8.6 103240 51
2012-01-11 07:13:03 51°22.231 3°2.199 0.1 268 8.6 103240 50
2012-01-11 07:13:08 51°22.239 3°2.22 0.7 56 8.6 103240 50
2012-01-11 07:13:12 51°22.246 3°2.235 0.8 21 8.6 103240 51
2012-01-11 07:13:18 51°22.256 3°2.26 0.2 32 8.6 103240 51
2012-01-11 07:13:23 51°22.264 3°2.28 0.1 21 8.6 103240 51
2012-01-11 07:13:28 51°22.272 3°2.301 0.1 30 8.6 103240 51
2012-01-11 07:13:32 51°22.278 3°2.317 0.1 20 8.6 103240 51
2012-01-11 07:13:37 51°22.286 3°2.337 0.1 306 8.6 103240 51
2012-01-11 07:13:43 51°22.296 3°2.361 0.9 18 8.6 103240 51
2012-01-11 07:13:48 51°22.305 3°2.381 1.5 37 8.6 103240 51
2012-01-11 07:13:52 51°22.312 3°2.397 1.5 20 8.6 103240 51
2012-01-11 07:13:57 51°22.32 3°2.417 1 38 8.6 103240 51
2012-01-11 07:14:02 51°22.329 3°2.437 0.4 20 8.6 103250 53
2012-01-11 07:14:08 51°22.338 3°2.462 0.1 38 8.6 103250 53
2012-01-11 07:14:12 51°22.344 3°2.479 0.1 20 8.6 103240 51
2012-01-11 07:14:18 51°22.353 3°2.505 0.2 53 8.6 103240 51
2012-01-11 07:14:22 51°22.359 3°2.521 0.1 21 8.6 103240 50
2012-01-11 07:14:28 51°22.367 3°2.547 0.1 41 8.6 103240 50
2012-01-11 07:14:32 51°22.374 3°2.564 0.1 44 8.6 103240 51
2012-01-11 07:14:37 51°22.38 3°2.586 0.1 44 8.6 103240 51
2012-01-11 07:14:42 51°22.388 3°2.607 0.1 44 8.6 103240 51
2012-01-11 07:14:48 51°22.396 3°2.633 -999 33 8.6 103240 51
2012-01-11 07:14:52 51°22.402 3°2.65 -999 34 8.7 103240 51
2012-01-11 07:14:58 51°22.41 3°2.676 -999 33 8.7 103240 51
2012-01-11 07:15:03 51°22.417 3°2.697 -999 30 8.6 103240 51
2012-01-11 07:15:08 51°22.424 3°2.719 -999 4 8.6 103240 51
2012-01-11 07:15:12 51°22.429 3°2.736 -999 3 8.7 103240 50
2012-01-11 07:15:17 51°22.437 3°2.757 0.1 31 8.7 103240 50
2012-01-11 07:15:23 51°22.446 3°2.783 0.1 25 8.6 103240 51
2012-01-11 07:15:28 51°22.454 3°2.804 0.1 50 8.6 103240 51
2012-01-11 07:15:32 51°22.46 3°2.821 0.1 264 8.7 103240 51
2012-01-11 07:15:38 51°22.47 3°2.845 0.1 41 8.7 103240 51
2012-01-11 07:15:43 51°22.479 3°2.865 0.1 19 8.7 103240 51
2012-01-11 07:15:48 51°22.488 3°2.886 0.2 40 8.7 103240 51
2012-01-11 07:15:52 51°22.495 3°2.901 0.2 270 8.7 103240 51
2012-01-11 07:15:57 51°22.504 3°2.921 0.2 308 8.7 103240 51
2012-01-11 07:16:03 51°22.515 3°2.945 0.2 270 8.6 103240 51
2012-01-11 07:16:08 51°22.523 3°2.965 0.5 33 8.6 103240 51
2012-01-11 07:16:12 51°22.53 3°2.981 0.5 263 8.6 103240 51
2012-01-11 07:16:17 51°22.539 3°3 0.2 308 8.6 103240 51
2012-01-11 07:16:23 51°22.55 3°3.024 0.2 265 8.6 103240 51
2012-01-11 07:16:28 51°22.56 3°3.043 0.3 260 8.6 103240 51
2012-01-11 07:16:32 51°22.567 3°3.06 0.5 261 8.7 103240 51
2012-01-11 07:16:37 51°22.577 3°3.079 1 265 8.7 103240 51
2012-01-11 07:16:43 51°22.589 3°3.102 0.4 265 8.6 103240 51
2012-01-11 07:16:48 51°22.599 3°3.121 0.4 267 8.6 103240 51
2012-01-11 07:16:52 51°22.606 3°3.137 0.6 268 8.6 103240 53
2012-01-11 07:16:58 51°22.618 3°3.16 0.6 309 8.6 103240 53
2012-01-11 07:17:02 51°22.625 3°3.176 0.5 266 8.6 103240 51
2012-01-11 07:17:08 51°22.636 3°3.198 0.7 38 8.6 103240 51
2012-01-11 07:17:12 51°22.643 3°3.213 0.7 265 8.6 103250 53
2012-01-11 07:17:17 51°22.652 3°3.233 0.1 311 8.6 103250 53
2012-01-11 07:17:22 51°22.661 3°3.252 0.1 9 8.6 103250 50
2012-01-11 07:17:28 51°22.672 3°3.276 0.2 263 8.6 103250 50
2012-01-11 07:17:32 51°22.679 3°3.292 0.2 263 8.6 103250 51
2012-01-11 07:17:38 51°22.691 3°3.316 0.6 308 8.6 103250 51
2012-01-11 07:17:43 51°22.701 3°3.336 0.5 23 8.6 103240 51
2012-01-11 07:17:48 51°22.71 3°3.356 0.7 261 8.6 103240 51
2012-01-11 07:17:52 51°22.718 3°3.371 0.4 259 8.6 103240 50
2012-01-11 07:17:58 51°22.73 3°3.395 0.7 268 8.6 103240 50
2012-01-11 07:18:03 51°22.74 3°3.414 0.5 258 8.6 103240 52
2012-01-11 07:18:08 51°22.75 3°3.434 1.3 305 8.6 103240 52
2012-01-11 07:18:12 51°22.758 3°3.448 0.4 265 8.6 103240 51
2012-01-11 07:18:18 51°22.771 3°3.471 1.1 53 8.6 103240 51
2012-01-11 07:18:23 51°22.782 3°3.489 0.8 266 8.6 103230 51
2012-01-11 07:18:28 51°22.792 3°3.508 2.3 257 8.6 103230 51
2012-01-11 07:18:32 51°22.801 3°3.522 1.5 263 8.6 103240 53
2012-01-11 07:18:37 51°22.812 3°3.54 0.8 309 8.6 103240 53
2012-01-11 07:18:42 51°22.822 3°3.558 1.1 260 8.6 103240 52
2012-01-11 07:18:48 51°22.835 3°3.579 1.7 260 8.6 103240 52
2012-01-11 07:18:52 51°22.843 3°3.594 1.3 31 8.6 103240 51
2012-01-11 07:18:58 51°22.855 3°3.616 0.4 309 8.6 103240 51
2012-01-11 07:19:03 51°22.866 3°3.635 0.5 263 8.6 103240 50
2012-01-11 07:19:08 51°22.876 3°3.653 0.9 261 8.6 103240 50
2012-01-11 07:19:12 51°22.884 3°3.667 1.2 251 8.6 103240 49
2012-01-11 07:19:17 51°22.894 3°3.686 0.5 264 8.6 103240 49
2012-01-11 07:19:23 51°22.907 3°3.708 1 259 8.6 103240 52
2012-01-11 07:19:28 51°22.917 3°3.726 0.6 304 8.6 103240 52
2012-01-11 07:19:32 51°22.926 3°3.74 1 269 8.6 103240 51
2012-01-11 07:19:38 51°22.939 3°3.761 0.5 262 8.6 103240 51
2012-01-11 07:19:43 51°22.949 3°3.78 0.3 257 8.6 103240 53
2012-01-11 07:19:48 51°22.96 3°3.797 0.7 36 8.6 103240 53
2012-01-11 07:19:52 51°22.968 3°3.812 0.5 262 8.6 103230 51
2012-01-11 07:19:57 51°22.978 3°3.83 1.2 256 8.6 103230 51
2012-01-11 07:20:02 51°22.988 3°3.848 0.7 253 8.6 103240 51
2012-01-11 07:20:08 51°23 3°3.87 0.3 270 8.6 103240 51
2012-01-11 07:20:12 51°23.008 3°3.886 0.6 270 8.6 103240 52
2012-01-11 07:20:17 51°23.018 3°3.904 0.5 306 8.6 103240 52
2012-01-11 07:20:23 51°23.029 3°3.928 0.2 263 8.6 103230 51
2012-01-11 07:20:28 51°23.039 3°3.946 0.4 33 8.6 103230 51
2012-01-11 07:20:32 51°23.046 3°3.962 0.2 22 8.6 103230 51
2012-01-11 07:20:36 51°23.055 3°3.977 0.3 258 8.6 103230 51
2012-01-11 07:20:42 51°23.065 3°4 0.2 254 8.6 103240 51
2012-01-11 07:20:48 51°23.076 3°4.022 0.6 42 8.6 103240 51
2012-01-11 07:20:52 51°23.084 3°4.038 0.6 23 8.6 103240 51
2012-01-11 07:20:57 51°23.093 3°4.057 0.4 36 8.6 103240 51
2012-01-11 07:21:02 51°23.103 3°4.077 0.4 19 8.6 103230 51
2012-01-11 07:21:08 51°23.114 3°4.101 0.9 33 8.6 103230 51
2012-01-11 07:21:12 51°23.122 3°4.116 0.8 20 8.6 103240 51
2012-01-11 07:21:17 51°23.132 3°4.136 0.1 258 8.6 103240 51
2012-01-11 07:21:22 51°23.143 3°4.154 0.8 258 8.6 103240 51
2012-01-11 07:21:28 51°23.155 3°4.176 0.8 306 8.6 103240 51
2012-01-11 07:21:32 51°23.164 3°4.191 0.8 258 8.6 103240 51
2012-01-11 07:21:37 51°23.175 3°4.209 0.7 264 8.6 103240 51
2012-01-11 07:21:42 51°23.186 3°4.227 1.5 268 8.6 103230 51
2012-01-11 07:21:48 51°23.199 3°4.247 1.6 83 8.6 103230 51
2012-01-11 07:21:52 51°23.208 3°4.261 1.6 252 8.6 103240 52
2012-01-11 07:21:58 51°23.221 3°4.283 2.1 303 8.6 103240 52
2012-01-11 07:22:02 51°23.23 3°4.296 1.3 264 8.6 103230 53
2012-01-11 07:22:08 51°23.243 3°4.317 1.8 269 8.6 103230 53
2012-01-11 07:22:12 51°23.252 3°4.331 1.1 264 8.6 103240 50
2012-01-11 07:22:18 51°23.266 3°4.352 1.4 263 8.6 103240 50
2012-01-11 07:22:23 51°23.277 3°4.369 1.1 266 8.6 103230 51
2012-01-11 07:22:28 51°23.288 3°4.387 2.1 257 8.6 103230 51
2012-01-11 07:22:32 51°23.297 3°4.401 2.2 257 8.6 103240 51
2012-01-11 07:22:38 51°23.309 3°4.422 0.9 259 8.6 103240 51
2012-01-11 07:22:43 51°23.321 3°4.44 2 260 8.6 103230 50
2012-01-11 07:22:48 51°23.331 3°4.458 0.7 286 8.6 103230 50
2012-01-11 07:22:52 51°23.34 3°4.473 1.5 260 8.6 103230 52
2012-01-11 07:22:56 51°23.348 3°4.488 0.9 311 8.6 103230 52
2012-01-11 07:23:02 51°23.361 3°4.509 1.2 265 8.6 103230 49
2012-01-11 07:23:08 51°23.374 3°4.532 0.7 260 8.6 103230 49
2012-01-11 07:23:12 51°23.382 3°4.546 0.3 262 8.6 103240 49
2012-01-11 07:23:17 51°23.392 3°4.565 0.4 304 8.6 103240 49
2012-01-11 07:23:22 51°23.402 3°4.584 0.8 265 8.6 103230 51
2012-01-11 07:23:28 51°23.415 3°4.607 0.7 268 8.6 103230 51
2012-01-11 07:23:32 51°23.423 3°4.621 0.6 266 8.6 103240 51
2012-01-11 07:23:37 51°23.432 3°4.641 0.6 269 8.6 103240 51
2012-01-11 07:23:43 51°23.444 3°4.664 0.9 23 8.6 103240 51
2012-01-11 07:23:48 51°23.455 3°4.682 1.1 283 8.6 103240 51
2012-01-11 07:23:52 51°23.463 3°4.697 1.6 29 8.6 103230 51
2012-01-11 07:23:57 51°23.472 3°4.716 0.6 266 8.6 103230 51
2012-01-11 07:24:03 51°23.484 3°4.739 0.6 266 8.6 103240 52
2012-01-11 07:24:08 51°23.494 3°4.758 0.2 307 8.6 103240 52
2012-01-11 07:24:12 51°23.501 3°4.774 0.3 268 8.6 103230 50
2012-01-11 07:24:18 51°23.513 3°4.797 0.2 306 8.6 103230 50
2012-01-11 07:24:22 51°23.52 3°4.812 0.3 267 8.6 103230 51
2012-01-11 07:24:28 51°23.532 3°4.835 1.1 263 8.6 103230 51
2012-01-11 07:24:32 51°23.54 3°4.85 1.1 264 8.6 103240 51
2012-01-11 07:24:38 51°23.552 3°4.872 0.4 264 8.6 103240 51
2012-01-11 07:24:43 51°23.562 3°4.89 0.9 27 8.6 103230 54
2012-01-11 07:24:48 51°23.573 3°4.907 2.7 39 8.6 103230 54
2012-01-11 07:24:52 51°23.581 3°4.922 2.2 26 8.6 103230 52